Overview Statistics Trail Chart Weather Telemetry Raw packets
 

This is the latest recevied weather packets stored in our database for station/object GUNLAK-WX. If no packets are shown the sender has not sent any weather packets the latest 10 day(s).

<< 1 2 3 4 >>
Time Temp. Humidity Pressure Rain* Wind** Luminosity Snow
1788577275 21.11° C 87% 987.1 hPa 0 mm - - -
1788576372 21.67° C 87% 986.7 hPa 0 mm - - -
1788575473 21.67° C 87% 986.5 hPa 0 mm - - -
1788574573 21.67° C 87% 986.5 hPa 0 mm - - -
1788573673 21.67° C 87% 986.5 hPa 0 mm - - -
1788572773 21.67° C 86% 985.9 hPa 0 mm - - -
1788571878 22.22° C 86% 985.9 hPa 0 mm - - -
1788570975 21.67° C 86% 985.8 hPa 0 mm - - -
1788570072 21.67° C 86% 985.8 hPa 0 mm - - -
1788569172 21.67° C 84% 985.6 hPa 0 mm - - -
1788568281 22.22° C 84% 986.3 hPa 0 mm - - -
1788567372 22.78° C 84% 986.3 hPa 0 mm - - -
1788566479 22.78° C 84% 986.3 hPa 0 mm - - -
1788565575 23.33° C 81% 986.5 hPa 0 mm - - -
1788564675 23.89° C 82% 986.5 hPa 0 mm - - -
1788563774 23.89° C 82% 986.6 hPa 0 mm - - -
1788562879 24.44° C 82% 986.6 hPa 0 mm - - -
1788561974 24.44° C 82% 985.9 hPa 0 mm - - -
1788561075 25° C 80% 986.8 hPa 0 mm - - -
1788560174 25° C 80% 986.8 hPa 0 mm - - -
1788559279 25° C 80% 986.8 hPa 0 mm - - -
1788558381 25° C 81% 986.2 hPa 0 mm - - -
1788557481 25° C 77% 986.3 hPa 0 mm - - -
1788556581 26.11° C 77% 986.4 hPa 0 mm - - -
1788555680 25.56° C 77% 986.4 hPa 0 mm - - -

* Rain latest hour (hover to see other rain measurements)
** Current wind speed in m/s (hover to see current wind gust speed)